Regional Weather Roundup
Issued by NWS Little Rock, AR

Home | Current Version | Previous Version | Graphics & Text | Print | Product List | Glossary On
Versions: 1 2 3 4 5 6 7 8 9 10 11 12 13 14 15 16 17 18 19 20 21 22 23 24 25 26 27 28 29 30 31 32 33 34 35 36 37 38 39 40 41 42 43 44 45 46 47 48 49 50
000
ASUS44 KLZK 272305
RWRLZK

WEATHER ROUNDUP FOR ARKANSAS
NATIONAL WEATHER SERVICE LITTLE ROCK AR
500 PM CST THU NOV 27 2014

NOTE: "FAIR" INDICATES FEW OR NO CLOUDS BELOW 12,000 FEET WITH NO
SIGNIFICANT WEATHER AND/OR OBSTRUCTIONS TO VISIBILITY.

ARZ001-003-010-029-280000-
NORTHWEST ARKANSAS

CITY           SKY/WX    TMP DP  RH WIND       PRES   REMARKS
FAYETTEVILLE   CLEAR     42  19  39 CALM      30.40F
FORT SMITH     CLEAR     47  24  40 E3        30.43F
HARRISON       CLEAR     39  20  46 NE3       30.41F
BENTONVILLE    CLEAR     41  18  38 S3        30.41F
ROGERS         CLEAR     40  19  43 SE3       30.41F
SILOAM SPGS    CLEAR     43  19  39 CALM      30.41F
HIGHFILL       CLEAR     42  21  43 CALM      30.39F
SPRINGDALE     PTCLDY    43  16  33 CALM      30.42F
$$

ARZ004-005-016-280000-
NORTH CENTRAL ARKANSAS

CITY           SKY/WX    TMP DP  RH WIND       PRES   REMARKS
BATESVILLE     CLEAR     45  25  45 CALM      30.46S
FLIPPIN        CLEAR     43  21  42 NE3       30.44F
MTN HOME       CLEAR     39  23  52 CALM      30.43S
$$

ARZ040-041-280000-
WEST CENTRAL ARKANSAS

CITY           SKY/WX    TMP DP  RH WIND       PRES   REMARKS
MENA           CLEAR     50  27  40 CALM      30.41S
MOUNT IDA      CLEAR     46  28  49 CALM      30.41S
$$

ARZ009-017-025-026-028-280000-
NORTHEAST ARKANSAS

CITY           SKY/WX    TMP DP  RH WIND       PRES   REMARKS
CORNING        FAIR      41  27  56 S3        30.47S
JONESBORO      CLEAR     42  28  57 CALM      30.47S
NEWPORT        HAZE      43  32  65 SE5       30.48S VSB<1/4
WALNUT RIDGE   CLEAR     45  27  49 CALM      30.46R
BLYTHEVILLE    CLEAR     42  29  59 CALM      30.48F
$$

ARZ022-023-033-042-044-280000-
CENTRAL ARKANSAS

CITY           SKY/WX    TMP DP  RH WIND       PRES   REMARKS
LITTLE ROCK    PTCLDY    47  23  38 CALM      30.47S
N LITTLE ROCK  PTCLDY    43  31  62 CALM      30.47S
JACKSONVILLE   CLEAR     45  28  52 CALM      30.46S HAZE
SEARCY         CLEAR     44  28  53 CALM      30.48S
HOT SPRINGS    CLEAR     48  26  42 CALM      30.45S
RUSSELLVILLE   CLEAR     43  29  57 CALM      30.44F
CLINTON        FAIR      43  30  61 CALM      30.45F
$$

ARZ036-280000-
EAST ARKANSAS

CITY           SKY/WX    TMP DP  RH WIND       PRES   REMARKS
WEST MEMPHIS   CLEAR     39  30  70 CALM      30.48R
$$

ARZ050-053-066-070-073-280000-
SOUTHWEST ARKANSAS

CITY           SKY/WX    TMP DP  RH WIND       PRES   REMARKS
ARKADELPHIA    FAIR      48  32  54 CALM      30.47F
CAMDEN         CLEAR     48  27  43 MISG      30.47F
TEXARKANA      CLEAR     49  29  46 CALM      30.45S
EL DORADO      CLEAR     48  31  51 NE5       30.46F
DE QUEEN       CLEAR     51  27  39 SE5       30.43S
$$

ARZ056-057-069-280000-
SOUTHEAST ARKANSAS

CITY           SKY/WX    TMP DP  RH WIND       PRES   REMARKS
PINE BLUFF     CLEAR     43  30  60 E6        30.48F
STUTTGART      CLEAR     45  27  49 SW3       30.49S
MONTICELLO     CLEAR     44  29  55 CALM      30.47F

$$




USA.gov is the U.S. government's official web portal to all federal, state and local government web resources and services.